Location: Albany
(35.0170°S, 117.8920°E)
Time: 20:09:26
(UTC+08:00)

A-11 Canister half - Pass Details

Date: 31 January 2021
Orbit: 1525 x 1684 km, 47.3° (Epoch: 03 March)

Event Time Altitude Azimuth Distance (km) Brightness Sun altitude
Rises 22:43:49 0° 336° (NNW) 4,897 - -32.8°
Reaches altitude 10° 22:47:11 10° 342° (NNW) 3,926 - -33.1°
Maximum altitude 22:56:28 43° 49° (NE) 2,247 - -34.0°
Exits shadow 23:01:06 28° 97° (E) 2,774 10.1 -34.4°
Drops below altitude 10° 23:05:46 10° 115° (ESE) 3,949 11.1 -34.7°
Sets 23:09:08 0° 121° (ESE) 4,928 11.8 -35.0°
